Total_Precipitation_Accumulation
0.00 0.01 0.01 0.02 0.01 0.00 0.01 0.01 0.01 0.01 0.01 0.02 0.03 0.04 0.04 0.02 0.02 0.02 0.02 0.02 0.03 0.02 0.01 0.00 0.00 0.00 0.00 0.01 0.03 0.02 0.00 0.01 0.11 0.12 0.25 0.17 0.15 0.12 0.05 0.05 0.38 0.29 0.30 0.19 0.26 0.14 0.07
0.04 0.03 0.02 0.02 0.02 0.02 0.02 0.01 0.02 0.01 0.01 0.02 0.04 0.04 0.02 0.02 0.01 0.02 0.02 0.02 0.03 0.02 0.00 0.00 0.00 0.00 0.02 0.02 0.00 0.00 0.00 0.00 0.10 0.13 0.22 0.22 0.14 0.21 0.06 0.07 0.20 0.24 0.35 0.27 0.36 0.25 0.13
0.04 0.04 0.04 0.04 0.04 0.05 0.04 0.05 0.02 0.02 0.02 0.03 0.05 0.03 0.01 0.01 0.01 0.02 0.02 0.02 0.02 0.01 0.00 0.00 0.00 0.00 0.02 0.03 0.00 0.00 0.00 0.00 0.04 0.11 0.22 0.26 0.18 0.19 0.09 0.08 0.06 0.19 0.26 0.37 0.39 0.26 0.16
0.06 0.07 0.06 0.10 0.10 0.08 0.08 0.04 0.04 0.02 0.02 0.03 0.03 0.02 0.02 0.01 0.01 0.02 0.02 0.01 0.01 0.00 0.00 0.00 0.00 0.00 0.00 0.00 0.00 0.00 0.00 0.01 0.01 0.04 0.26 0.44 0.18 0.18 0.05 0.06 0.09 0.16 0.46 0.46 0.24 0.42 0.10
0.08 0.08 0.10 0.14 0.15 0.13 0.08 0.05 0.04 0.02 0.03 0.03 0.02 0.02 0.03 0.01 0.01 0.01 0.00 0.00 0.00 0.00 0.00 0.00 0.00 0.00 0.01 0.00 0.01 0.00 0.00 0.09 0.10 0.04 0.31 0.69 0.46 0.25 0.11 0.08 0.12 0.12 0.26 0.31 0.24 0.25 0.24
0.11 0.14 0.16 0.19 0.17 0.11 0.07 0.07 0.05 0.02 0.02 0.01 0.02 0.03 0.02 0.01 0.01 0.01 0.00 0.00 0.00 0.00 0.00 0.00 0.00 0.01 0.01 0.00 0.22 0.02 0.02 0.19 0.14 0.14 0.53 1.00 0.87 0.29 0.10 0.07 0.05 0.03 0.02 0.10 0.17 0.16 0.10
0.15 0.18 0.23 0.18 0.10 0.06 0.07 0.08 0.04 0.01 0.01 0.02 0.03 0.03 0.02 0.02 0.01 0.01 0.00 0.00 0.00 0.00 0.00 0.00 0.00 0.00 0.00 0.01 0.04 0.05 0.06 0.40 0.30 0.25 0.49 1.03 0.90 0.26 0.03 0.00 0.00 0.00 0.00 0.01 0.05 0.14 0.13
0.20 0.21 0.16 0.09 0.09 0.06 0.08 0.06 0.01 0.00 0.01 0.02 0.02 0.02 0.02 0.01 0.01 0.01 0.00 0.00 0.00 0.00 0.00 0.00 0.00 0.00 0.00 0.04 0.13 0.07 0.05 0.69 0.48 0.32 0.33 0.60 0.42 0.07 0.02 0.00 0.00 0.01 0.00 0.03 0.07 0.11 0.12
0.12 0.11 0.13 0.14 0.10 0.07 0.08 0.05 0.01 0.00 0.02 0.02 0.02 0.02 0.01 0.01 0.00 0.00 0.00 0.00 0.00 0.00 0.00 0.00 0.00 0.00 0.00 0.11 0.12 0.16 0.11 0.57 0.33 0.27 0.28 0.34 0.24 0.18 0.10 0.02 0.03 0.01 0.00 0.05 0.06 0.13 0.10
0.11 0.17 0.19 0.14 0.10 0.07 0.07 0.03 0.01 0.01 0.01 0.01 0.01 0.01 0.01 0.01 0.00 0.00 0.00 0.00 0.00 0.00 0.03 0.01 0.00 0.00 0.01 0.07 0.14 0.05 0.10 0.47 0.36 0.36 0.20 0.29 0.17 0.15 0.11 0.03 0.01 0.00 0.00 0.02 0.09 0.06 0.03
0.15 0.16 0.13 0.11 0.09 0.08 0.11 0.06 0.01 0.00 0.01 0.01 0.01 0.01 0.02 0.01 0.00 0.00 0.00 0.00 0.00 0.00 0.10 0.03 0.01 0.00 0.02 0.05 0.08 0.09 0.14 0.25 0.15 0.13 0.08 0.21 0.20 0.17 0.08 0.01 0.01 0.02 0.00 0.04 0.08 0.02 0.01
0.15 0.15 0.15 0.14 0.13 0.13 0.12 0.07 0.02 0.00 0.01 0.00 0.00 0.01 0.02 0.00 0.00 0.00 0.00 0.00 0.00 0.04 0.04 0.01 0.00 0.00 0.02 0.04 0.05 0.10 0.24 0.10 0.05 0.01 0.12 0.16 0.29 0.16 0.07 0.03 0.01 0.01 0.00 0.08 0.04 0.01 0.00
0.10 0.12 0.11 0.09 0.09 0.13 0.13 0.08 0.03 0.01 0.00 0.00 0.01 0.01 0.00 0.00 0.00 0.00 0.00 0.00 0.02 0.04 0.05 0.01 0.00 0.00 0.01 0.02 0.04 0.06 0.08 0.08 0.08 0.06 0.29 0.40 0.46 0.11 0.03 0.02 0.00 0.00 0.00 0.07 0.05 0.01 0.00
0.12 0.13 0.12 0.14 0.17 0.20 0.16 0.11 0.05 0.00 0.00 0.00 0.00 0.00 0.00 0.00 0.00 0.00 0.00 0.00 0.02 0.03 0.03 0.01 0.00 0.00 0.01 0.01 0.02 0.03 0.09 0.10 0.03 0.02 0.26 0.45 0.59 0.14 0.02 0.01 0.00 0.00 0.00 0.00 0.01 0.00 0.00
0.18 0.21 0.18 0.24 0.30 0.30 0.21 0.15 0.06 0.00 0.00 0.00 0.00 0.00 0.00 0.00 0.00 0.00 0.00 0.01 0.01 0.03 0.05 0.00 0.00 0.00 0.00 0.00 0.00 0.01 0.10 0.05 0.02 0.02 0.12 0.13 0.24 0.09 0.01 0.00 0.00 0.01 0.01 0.00 0.00 0.00 0.00
0.31 0.28 0.25 0.29 0.31 0.25 0.19 0.14 0.07 0.02 0.00 0.00 0.00 0.00 0.00 0.00 0.00 0.00 0.01 0.01 0.00 0.00 0.01 0.00 0.01 0.00 0.00 0.00 0.00 0.01 0.03 0.02 0.01 0.01 0.00 0.00 0.16 0.11 0.01 0.01 0.00 0.00 0.00 0.00 0.00 0.00 0.00
0.44 0.32 0.34 0.40 0.46 0.34 0.27 0.19 0.08 0.01 0.00 0.00 0.00 0.00 0.00 0.00 0.00 0.01 0.01 0.01 0.00 0.00 0.00 0.04 0.02 0.00 0.00 0.00 0.00 0.00 0.02 0.01 0.01 0.00 0.00 0.00 0.04 0.09 0.03 0.04 0.02 0.00 0.00 0.00 0.00 0.00 0.00
0.43 0.32 0.39 0.54 0.57 0.35 0.27 0.19 0.09 0.01 0.00 0.00 0.00 0.00 0.00 0.00 0.01 0.01 0.00 0.00 0.00 0.00 0.00 0.00 0.01 0.01 0.00 0.00 0.00 0.00 0.01 0.01 0.00 0.00 0.00 0.00 0.00 0.03 0.04 0.01 0.00 0.00 0.00 0.00 0.00 0.00 0.00
0.55 0.56 0.50 0.58 0.59 0.42 0.21 0.15 0.09 0.01 0.00 0.00 0.00 0.00 0.00 0.00 0.01 0.00 0.00 0.00 0.00 0.00 0.00 0.00 0.01 0.02 0.01 0.00 0.00 0.00 0.00 0.00 0.00 0.00 0.00 0.00 0.00 0.03 0.06 0.04 0.00 0.00 0.00 0.00 0.00 0.00 0.01
0.50 0.59 0.59 0.49 0.42 0.41 0.24 0.13 0.05 0.01 0.00 0.00 0.00 0.00 0.01 0.01 0.00 0.00 0.00 0.00 0.00 0.00 0.00 0.00 0.00 0.00 0.00 0.00 0.00 0.00 0.00 0.00 0.00 0.00 0.00 0.00 0.00 0.00 0.01 0.01 0.00 0.00 0.00 0.00 0.00 0.00 0.00
0.42 0.56 0.71 0.59 0.47 0.41 0.20 0.12 0.03 0.00 0.00 0.00 0.00 0.00 0.00 0.00 0.00 0.00 0.01 0.00 0.00 0.00 0.00 0.00 0.00 0.00 0.00 0.00 0.00 0.00 0.00 0.00 0.00 0.00 0.00 0.00 0.00 0.00 0.00 0.00 0.00 0.00 0.00 0.00 0.00 0.00 0.00
0.57 0.54 0.67 0.63 0.48 0.45 0.29 0.12 0.04 0.00 0.00 0.00 0.00 0.00 0.00 0.00 0.00 0.00 0.00 0.00 0.00 0.00 0.00 0.00 0.00 0.00 0.00 0.00 0.00 0.00 0.00 0.00 0.00 0.00 0.00 0.00 0.00 0.00 0.00 0.00 0.00 0.00 0.00 0.00 0.00 0.00 0.00
0.73 0.78 0.89 0.87 0.71 0.45 0.27 0.16 0.05 0.00 0.00 0.00 0.00 0.00 0.00 0.00 0.00 0.00 0.00 0.00 0.00 0.00 0.00 0.00 0.00 0.00 0.00 0.00 0.00 0.00 0.00 0.00 0.00 0.00 0.00 0.00 0.00 0.00 0.00 0.00 0.00 0.00 0.00 0.00 0.00 0.00 0.00
0.70 0.71 0.64 0.64 0.49 0.41 0.25 0.16 0.04 0.00 0.00 0.00 0.00 0.00 0.00 0.00 0.00 0.00 0.00 0.00 0.00 0.00 0.00 0.00 0.00 0.00 0.00 0.00 0.00 0.00 0.00 0.00 0.00 0.00 0.00 0.00 0.00 0.00 0.00 0.00 0.00 0.00 0.00 0.00 0.00 0.00 0.00
0.74 0.94 1.01 1.01 0.71 0.47 0.24 0.14 0.02 0.00 0.00 0.00 0.00 0.00 0.00 0.00 0.00 0.00 0.00 0.00 0.00 0.00 0.00 0.00 0.00 0.00 0.00 0.00 0.00 0.00 0.00 0.00 0.00 0.00 0.00 0.00 0.00 0.00 0.00 0.00 0.00 0.00 0.00 0.00 0.00 0.00 0.00
0.53 0.65 0.79 0.74 0.68 0.54 0.32 0.15 0.01 0.00 0.00 0.00 0.00 0.00 0.00 0.00 0.00 0.00 0.00 0.00 0.00 0.00 0.00 0.00 0.00 0.00 0.00 0.00 0.01 0.01 0.01 0.01 0.00 0.00 0.00 0.00 0.00 0.00 0.00 0.00 0.00 0.00 0.00 0.00 0.00 0.00 0.00
0.46 0.47 0.48 0.41 0.35 0.33 0.25 0.09 0.00 0.00 0.00 0.00 0.00 0.00 0.00 0.00 0.00 0.00 0.00 0.00 0.00 0.00 0.00 0.00 0.00 0.00 0.00 0.02 0.02 0.01 0.01 0.00 0.00 0.00 0.00 0.00 0.01 0.01 0.02 0.01 0.00 0.00 0.00 0.00 0.00 0.00 0.00
0.79 0.85 0.83 0.55 0.35 0.27 0.17 0.04 0.00 0.00 0.00 0.00 0.00 0.00 0.00 0.00 0.00 0.00 0.00 0.00 0.00 0.00 0.00 0.00 0.00 0.00 0.00 0.02 0.02 0.01 0.00 0.00 0.00 0.00 0.00 0.00 0.01 0.01 0.01 0.01 0.00 0.00 0.00 0.00 0.00 0.00 0.00
0.75 0.83 0.89 0.83 0.45 0.28 0.18 0.02 0.00 0.00 0.00 0.00 0.00 0.00 0.00 0.00 0.00 0.00 0.00 0.00 0.00 0.00 0.00 0.00 0.00 0.00 0.00 0.00 0.00 0.00 0.00 0.00 0.00 0.00 0.00 0.00 0.00 0.00 0.00 0.00 0.00 0.00 0.00 0.00 0.00 0.00 0.00